[[[{"header":{"parameterUnit":"kt","parameterCategory":2,"dx":1,"dy":1,"la1":30.253999710083008,"la2":30.299108505249023,"lo1":-89.0895004272461,"lo2":-89.04439544677734,"nx":28,"ny":28,"refTime":"2022-10-08T21:00:00:Z","depth":"0","parameterNumber":2,"parameterNumberName":"U-component_of_CURRENTS"},"data":[-0.6075,-0.5734,-0.5623,-0.4986,-0.4828,-0.4281,-0.406,-0.3897,-0.3662,-0.3229,-0.2893,-0.2689,-0.2433,-0.231,-0.2063,-0.2017,-0.196,-0.1924,-0.1921,-0.2174,-0.2214,-0.2252,-0.2428,-0.1874,-0.1874,-0.158,-0.1578,-0.1576,-0.6339,-0.6218,-0.6113,-0.5798,-0.5509,-0.56,-0.5303,-0.4981,-0.4602,-0.4412,-0.4104,-0.3582,-0.3154,-0.2837,-0.2465,-0.2324,-0.2313,-0.2288,-0.227,-0.2254,-0.2551,-0.2732,-0.2233,-0.2233,-0.2233,-0.2234,-0.2234,-0.2234,-0.6786,-0.6675,-0.6592,-0.6382,-0.6277,-0.6035,-0.5728,-0.5622,-0.5292,-0.4807,-0.4837,-0.4347,-0.3946,-0.3286,-0.3089,-0.2748,-0.2843,-0.268,-0.2701,-0.2686,-0.2788,-0.3309,-0.2722,-0.2723,-0.2724,-0.2725,-0.2726,0,-0.6957,-0.6971,-0.6933,-0.6796,-0.6675,-0.6478,-0.6248,-0.6073,-0.5775,-0.5565,-0.5199,-0.4942,-0.4386,-0.3916,-0.344,-0.3243,-0.3154,-0.3118,-0.3038,-0.316,-0.3223,-0.3134,-0.3674,-0.3088,-0.3092,-0.3094,-0.3096,-0.3097,-0.7063,-0.71,-0.7067,-0.6998,-0.6982,-0.6792,-0.6612,-0.6391,-0.6168,-0.5745,-0.5558,-0.5134,-0.483,-0.4174,-0.3906,-0.3463,-0.352,-0.3201,-0.3465,-0.3476,-0.345,-0.3475,-0.3469,-0.3133,-0.3128,-0.3125,-0.3122,0,-0.7054,-0.7164,-0.7144,-0.7109,-0.7059,-0.693,-0.663,-0.6432,-0.6219,-0.5868,-0.5756,-0.5449,-0.5048,-0.4783,-0.4323,-0.4241,-0.3786,-0.3783,-0.3823,-0.3733,-0.3569,-0.3628,-0.299,-0.2921,-0.3359,-0.3356,-0.3353,0,-0.7094,-0.7082,-0.7171,-0.7184,-0.7036,-0.6971,-0.6723,-0.6571,-0.6293,-0.6031,-0.5901,-0.5656,-0.5409,-0.5086,-0.4954,-0.4554,-0.4433,-0.445,-0.4335,-0.4337,-0.4343,-0.4173,-0.4226,-0.4326,-0.4332,-0.4337,-0.4341,0,-0.7075,-0.713,-0.7162,-0.7148,-0.7068,-0.6984,-0.6852,-0.6614,-0.6439,-0.6176,-0.6005,-0.5748,-0.5563,-0.5316,-0.5152,-0.5274,-0.4659,-0.4729,-0.4532,-0.4528,-0.4337,-0.4335,-0.3864,-0.4348,-0.435,-0.4352,-0.4354,0,-0.7102,-0.716,-0.7221,-0.7118,-0.7087,-0.7045,-0.6759,-0.6676,-0.6433,-0.6339,-0.6153,-0.6066,-0.584,-0.597,-0.5526,-0.5729,-0.5548,-0.5413,-0.5381,-0.5378,-0.5376,-0.4707,-0.4447,-0.4375,-0.5027,-0.5034,-0.5041,0,-0.7051,-0.7175,-0.717,-0.7144,-0.7146,-0.7009,-0.6929,-0.6792,-0.6681,-0.651,-0.64,-0.6275,-0.6396,-0.6308,-0.6177,-0.601,-0.5785,-0.6112,-0.5474,-0.5454,-0.5416,-0.5236,-0.5175,-0.4577,-0.5136,-0.5126,-0.5119,0,-0.7006,-0.712,-0.7116,-0.7081,-0.7023,-0.6988,-0.694,-0.68,-0.667,-0.6664,-0.6468,-0.6519,-0.6432,-0.6407,-0.6381,-0.6221,-0.5931,-0.6238,-0.6225,-0.5889,-0.5332,-0.5362,-0.5299,-0.5886,-0.5878,-0.5871,-0.5195,0,-0.7,-0.7024,-0.7071,-0.7031,-0.6992,-0.6998,-0.6917,-0.6876,-0.6805,-0.672,-0.663,-0.6614,-0.6498,-0.654,-0.6575,-0.6398,-0.634,-0.6349,-0.6226,-0.6205,-0.5924,-0.5864,-0.6567,-0.6567,-0.6567,-0.6567,0,0,-0.6874,-0.6918,-0.6883,-0.6927,-0.6868,-0.6774,-0.6768,-0.6752,-0.6705,-0.6624,-0.6677,-0.6568,-0.6579,-0.6445,-0.6523,-0.6544,-0.6382,-0.6497,-0.6295,-0.6265,-0.6237,-0.5964,-0.5907,-0.6567,-0.6567,-0.6568,-0.6568,0,-0.685,-0.6818,-0.6863,-0.6842,-0.6799,-0.6735,-0.6738,-0.6687,-0.6655,-0.6653,-0.6589,-0.6549,-0.6581,-0.6502,-0.6477,-0.6548,-0.6368,-0.6611,-0.6558,-0.6304,-0.6275,-0.6248,-0.5975,-0.5923,-0.6568,-0.6568,-0.6568,0,-0.6727,-0.6708,-0.6701,-0.6692,-0.6649,-0.6644,-0.6566,-0.6581,-0.6553,-0.6478,-0.6466,-0.6461,-0.6439,-0.6456,-0.6466,-0.6422,-0.6284,-0.6452,-0.6455,-0.6434,-0.6166,-0.6138,-0.6112,-0.6408,-0.6406,-0.6405,0,0,-0.669,-0.6705,-0.6635,-0.667,-0.6662,-0.657,-0.6558,-0.6516,-0.649,-0.6479,-0.6435,-0.6414,-0.6414,-0.639,-0.6421,-0.6416,-0.6255,-0.6427,-0.6435,-0.644,-0.6422,-0.616,-0.6136,-0.6401,-0.6401,-0.6401,0,0,-0.6673,-0.6611,-0.6528,-0.6588,-0.6544,-0.649,-0.6516,-0.6446,-0.6434,-0.6422,-0.6346,-0.6339,-0.6376,-0.6359,-0.6309,-0.6361,-0.6341,-0.635,-0.6315,-0.6324,-0.6332,-0.6298,-0.6232,0,0,0,0,0,-0.6534,-0.6615,-0.6539,-0.6533,-0.649,-0.6505,-0.6497,-0.6437,-0.6371,-0.6408,-0.6362,-0.6309,-0.6339,-0.6293,-0.6287,-0.6282,-0.6346,-0.6356,-0.6365,-0.6327,-0.6337,-0.6346,0,0,0,0,0,0,-0.6531,-0.6528,-0.6537,-0.6486,-0.6473,-0.6502,-0.6411,-0.6396,-0.6369,-0.6362,-0.6317,-0.6308,-0.6272,-0.6291,-0.6287,-0.6282,-0.6233,-0.635,-0.6358,-0.6366,-0.633,-0.6339,-0.6346,0,0,0,0,0,-0.6529,-0.6526,-0.6482,-0.6483,-0.6473,-0.6398,-0.6411,-0.6398,-0.6382,-0.6323,-0.6312,-0.6338,-0.6274,-0.6268,-0.6288,-0.6285,-0.6235,-0.6234,-0.6356,-0.6362,-0.6368,-0.6335,0,0,0,0,0,0,-0.6527,-0.6515,-0.6477,-0.647,-0.6471,-0.6397,-0.6388,-0.6399,-0.6344,-0.6332,-0.6342,-0.6337,-0.6276,-0.6271,-0.6266,-0.6288,-0.6237,-0.6236,-0.6235,-0.636,-0.6366,-0.637,0,0,0,0,0,0,-0.6515,-0.6511,-0.6474,-0.6463,-0.6454,-0.6396,-0.6388,-0.6381,-0.6345,-0.6368,-0.636,-0.634,-0.6284,-0.6273,-0.6269,-0.6259,-0.6238,-0.6237,-0.6237,-0.6236,-0.6365,-0.6369,0,0,0,0,0,0,-0.6511,-0.6507,-0.6465,-0.6458,-0.645,-0.6367,-0.6389,-0.6354,-0.6319,-0.6372,-0.6315,-0.6313,-0.6288,-0.6283,-0.6271,-0.6263,-0.626,-0.6238,-0.6238,-0.6237,-0.6237,0,0,0,0,0,0,0,-0.6508,-0.6562,-0.6515,-0.6454,-0.6447,-0.64,-0.6398,-0.6397,-0.6318,-0.6317,-0.6315,-0.6314,-0.6245,-0.6244,-0.6243,-0.6267,0,0,-0.6239,-0.6238,0,0,0,0,0,0,0,0,-0.6561,-0.6561,-0.6514,-0.6512,-0.651,-0.64,-0.6398,-0.6397,-0.6318,-0.6317,-0.6315,-0.6314,-0.6245,-0.6244,-0.6243,0,0,0,0,0,0,0,0,0,0,0,0,0,0,0,-0.6514,-0.6512,0,-0.6399,-0.6398,-0.6398,-0.6318,-0.6317,-0.6316,-0.6315,-0.6245,-0.6244,-0.6243,0,0,0,0,0,0,0,0,0,0,0,0,0,0,0,0,0,0,0,0,0,0,0,0,0,0,0,0,0,0,0,0,0,0,0,0,0,0,0,0,0,0,0,0,0,0,0,0,0,0,0,0,0,0,0,0,0,0,0,0,0,0,0,0,0,0,0,0,0]}],[{"header":{"parameterUnit":"kt","parameterCategory":2,"dx":1,"dy":1,"la1":30.253999710083008,"la2":30.299108505249023,"lo1":-89.0895004272461,"lo2":-89.04439544677734,"nx":28,"ny":28,"refTime":"2022-10-08T21:00:00:Z","depth":"0","parameterNumber":3,"parameterNumberName":"V-component_of_CURRENTS"},"data":[-0.1806,-0.1626,-0.1478,-0.1119,-0.0967,-0.0636,-0.0471,-0.0292,-0.0162,0.0128,0.0319,0.0508,0.085,0.1188,0.1418,0.1471,0.1769,0.1679,0.2019,0.1787,0.1796,0.1805,0.1666,0.1726,0.1727,0.2165,0.2169,0.2172,-0.1809,-0.1654,-0.1541,-0.1288,-0.1121,-0.1066,-0.0879,-0.0672,-0.0361,-0.0245,0.0112,0.0463,0.0759,0.1006,0.1221,0.1406,0.1508,0.1567,0.1589,0.1716,0.1446,0.1281,0.126,0.126,0.126,0.126,0.1259,0.1259,-0.1782,-0.1709,-0.1528,-0.1346,-0.1247,-0.1107,-0.0936,-0.0807,-0.0555,-0.0169,-0.0039,0.0347,0.0615,0.1134,0.1313,0.1489,0.163,0.1575,0.169,0.1744,0.1726,0.1273,0.1469,0.1471,0.1473,0.1475,0.1477,0,-0.1691,-0.1605,-0.1475,-0.1322,-0.1214,-0.1058,-0.0898,-0.0825,-0.0514,-0.0285,0.0017,0.0267,0.0664,0.0957,0.1366,0.1538,0.1804,0.1746,0.1894,0.1595,0.1503,0.1601,0.1267,0.156,0.1563,0.1565,0.1566,0.1568,-0.1593,-0.153,-0.1284,-0.121,-0.1108,-0.0939,-0.0831,-0.0553,-0.0426,-0.005,0.0021,0.0388,0.063,0.1172,0.1395,0.1759,0.1889,0.181,0.1681,0.1678,0.1759,0.1774,0.1847,0.16,0.1596,0.1593,0.159,0,-0.154,-0.1386,-0.1246,-0.0989,-0.092,-0.0816,-0.0584,-0.0432,-0.018,0.0025,0.011,0.046,0.0752,0.1047,0.1463,0.1555,0.1869,0.1888,0.1573,0.155,0.1623,0.1676,0.2096,0.2214,0.2046,0.2045,0.2044,0,-0.1393,-0.1318,-0.1076,-0.1032,-0.0864,-0.0702,-0.0508,-0.0324,-0.0064,0.0094,0.0348,0.0486,0.0803,0.1038,0.1207,0.144,0.1581,0.1546,0.1568,0.1361,0.1324,0.1481,0.153,0.178,0.1777,0.1775,0.1772,0,-0.1369,-0.1173,-0.105,-0.1004,-0.0779,-0.0676,-0.0557,-0.0306,-0.017,0.0153,0.0252,0.0576,0.0686,0.0943,0.1077,0.1015,0.1461,0.1413,0.1453,0.1441,0.1378,0.1344,0.1712,0.1769,0.1768,0.1767,0.1766,0,-0.1283,-0.1174,-0.1041,-0.0845,-0.08,-0.0729,-0.0495,-0.0371,-0.0093,0.0003,0.02,0.0297,0.0563,0.0464,0.0854,0.07,0.0852,0.0953,0.0969,0.0886,0.0775,0.0861,0.1064,0.1156,0.1061,0.1056,0.105,0,-0.1284,-0.1141,-0.1075,-0.0962,-0.0892,-0.0807,-0.0675,-0.0532,-0.0423,-0.0234,-0.0085,0.0091,0.004,0.0128,0.0296,0.0465,0.0659,0.0431,0.0813,0.0825,0.0673,0.0889,0.0688,0.0978,0.0976,0.0983,0.0989,0,-0.1323,-0.1162,-0.1167,-0.1102,-0.102,-0.0956,-0.0831,-0.0673,-0.0531,-0.0488,-0.0286,-0.0118,-0.007,0.0041,0.0119,0.0284,0.0528,0.0266,0.0276,0.0384,0.0939,0.0798,0.0835,0.0557,0.0566,0.0574,0.093,0,-0.1272,-0.1231,-0.1186,-0.1117,-0.1066,-0.1003,-0.0921,-0.0854,-0.0825,-0.0745,-0.0545,-0.0449,-0.0256,-0.0222,-0.018,0.0101,0.0088,0.008,0.0086,0.0216,0.0345,0.0392,-0.0164,-0.0165,-0.0165,-0.0165,0,0,-0.1351,-0.1288,-0.1263,-0.1201,-0.1152,-0.1123,-0.1057,-0.0993,-0.0897,-0.0802,-0.0873,-0.0593,-0.0511,-0.0234,-0.0202,-0.0182,-0.0088,-0.0156,0.0121,0.0151,0.0181,0.0312,0.0357,-0.0166,-0.0166,-0.0166,-0.0166,0,-0.1339,-0.1331,-0.1291,-0.1252,-0.1173,-0.1128,-0.1115,-0.1036,-0.0984,-0.0902,-0.0823,-0.0701,-0.0577,-0.042,-0.033,-0.0208,-0.0129,-0.0195,-0.0093,0.0109,0.014,0.0169,0.0303,0.0343,-0.0167,-0.0167,-0.0167,0,-0.1386,-0.1337,-0.1332,-0.1259,-0.1204,-0.1144,-0.1132,-0.1062,-0.0998,-0.0954,-0.085,-0.0784,-0.0643,-0.0505,-0.044,-0.0441,-0.0147,-0.0283,-0.0279,-0.0227,-0.0017,0.0017,0.0048,-0.0342,-0.0343,-0.0344,0,0,-0.1381,-0.1358,-0.1292,-0.1252,-0.122,-0.1156,-0.1117,-0.1086,-0.1003,-0.0973,-0.0905,-0.0798,-0.0677,-0.0605,-0.0514,-0.0386,-0.0284,-0.0308,-0.03,-0.0293,-0.024,-0.0029,0.0003,-0.0347,-0.0347,-0.0348,0,0,-0.1364,-0.1302,-0.1308,-0.1257,-0.1204,-0.1107,-0.1065,-0.1048,-0.0975,-0.0963,-0.0882,-0.0854,-0.0734,-0.0671,-0.0729,-0.0491,-0.052,-0.0507,-0.0533,-0.0522,-0.0514,-0.0475,-0.0694,0,0,0,0,0,-0.1343,-0.1313,-0.132,-0.1304,-0.1203,-0.1117,-0.1101,-0.1046,-0.1041,-0.1026,-0.0945,-0.0913,-0.0671,-0.0722,-0.0695,-0.0614,-0.0394,-0.0385,-0.0378,-0.0383,-0.0372,-0.0362,0,0,0,0,0,0,-0.1336,-0.1318,-0.1319,-0.1226,-0.1201,-0.1118,-0.11,-0.1085,-0.1042,-0.1039,-0.0929,-0.091,-0.0849,-0.0732,-0.0708,-0.0632,-0.0702,-0.039,-0.0383,-0.0377,-0.0379,-0.037,-0.0362,0,0,0,0,0,-0.133,-0.1315,-0.1176,-0.1224,-0.1203,-0.112,-0.1101,-0.1089,-0.1061,-0.0949,-0.093,-0.1021,-0.085,-0.0825,-0.0717,-0.0643,-0.0718,-0.0709,-0.0386,-0.038,-0.0375,-0.0375,0,0,0,0,0,0,-0.1325,-0.1306,-0.1169,-0.1159,-0.1232,-0.1123,-0.1108,-0.1092,-0.0973,-0.0954,-0.1036,-0.1034,-0.0851,-0.0831,-0.0811,-0.065,-0.0731,-0.0722,-0.0717,-0.0382,-0.0377,-0.0374,0,0,0,0,0,0,-0.1313,-0.1299,-0.1164,-0.1177,-0.1168,-0.1127,-0.1114,-0.1023,-0.0971,-0.1067,-0.1062,-0.1036,-0.086,-0.0835,-0.082,-0.0681,-0.0741,-0.0733,-0.0727,-0.0723,-0.0378,-0.0375,0,0,0,0,0,0,-0.1305,-0.1293,-0.118,-0.1173,-0.1165,-0.1052,-0.1043,-0.0936,-0.1009,-0.1073,-0.101,-0.101,-0.0864,-0.0848,-0.0826,-0.0694,-0.0685,-0.0741,-0.0735,-0.0731,-0.0728,0,0,0,0,0,0,0,-0.1299,-0.1402,-0.1223,-0.117,-0.1163,-0.1064,-0.1061,-0.1059,-0.1009,-0.1009,-0.101,-0.101,-0.0788,-0.0779,-0.077,-0.0705,0,0,-0.0741,-0.0737,0,0,0,0,0,0,0,0,-0.1405,-0.1403,-0.1222,-0.122,-0.1217,-0.1063,-0.1062,-0.106,-0.1009,-0.1009,-0.101,-0.101,-0.0786,-0.0779,-0.0771,0,0,0,0,0,0,0,0,0,0,0,0,0,0,0,-0.1222,-0.122,0,-0.1063,-0.1062,-0.106,-0.1009,-0.1009,-0.101,-0.101,-0.0784,-0.0778,-0.0772,0,0,0,0,0,0,0,0,0,0,0,0,0,0,0,0,0,0,0,0,0,0,0,0,0,0,0,0,0,0,0,0,0,0,0,0,0,0,0,0,0,0,0,0,0,0,0,0,0,0,0,0,0,0,0,0,0,0,0,0,0,0,0,0,0,0,0,0,0]}]],[[{"header":{"parameterUnit":"kt","parameterCategory":2,"dx":1,"dy":1,"la1":30.253999710083008,"la2":30.299108505249023,"lo1":-89.0895004272461,"lo2":-89.04439544677734,"nx":28,"ny":28,"refTime":"2022-10-08T21:00:00:Z","depth":"2","parameterNumber":2,"parameterNumberName":"U-component_of_CURRENTS"},"data":[-0.4737,-0.437,-0.4349,-0.3717,-0.359,-0.3099,-0.283,-0.2427,-0.2134,-0.1368,-0.1061,-0.0772,-0.114,-0.0858,-0.0891,-0.0921,-0.1226,-0.089,-0.1496,-0.1612,-0.1674,-0.1935,-0.2178,0,0,0,0,0,-0.5136,-0.5055,-0.4922,-0.4716,-0.4425,-0.4581,-0.4259,-0.3858,-0.3253,-0.2937,-0.2365,-0.1788,-0.1369,-0.1517,-0.1335,-0.1293,-0.1332,-0.141,-0.1472,-0.1539,-0.1601,-0.1719,-0.0928,-0.0927,-0.0927,-0.0926,0,0,-0.5834,-0.5706,-0.5646,-0.5485,-0.5399,-0.5133,-0.4829,-0.4637,-0.4237,-0.3613,-0.3692,-0.3042,-0.2948,-0.2073,-0.1982,-0.2024,-0.215,-0.2137,-0.2168,-0.2206,-0.2341,-0.2423,-0.1724,-0.1728,-0.1731,-0.1735,-0.1737,0,-0.6238,-0.6293,-0.6212,-0.6121,-0.5994,-0.5811,-0.5582,-0.5437,-0.5229,-0.4968,-0.4519,-0.4158,-0.3694,-0.3092,-0.275,-0.256,-0.2879,-0.2647,-0.3271,-0.2832,-0.2918,-0.2897,-0.298,-0.2294,-0.2301,-0.2307,-0.2311,-0.2314,-0.6603,-0.6584,-0.6585,-0.649,-0.6435,-0.6243,-0.6063,-0.5939,-0.5717,-0.5402,-0.5209,-0.4853,-0.4441,-0.3877,-0.3619,-0.3177,-0.3554,-0.2835,-0.2965,-0.3688,-0.3654,-0.3716,-0.3774,-0.2396,-0.2385,-0.2377,-0.237,0,-0.6694,-0.6817,-0.6731,-0.6651,-0.6615,-0.6446,-0.6205,-0.5977,-0.5825,-0.5512,-0.5412,-0.5181,-0.4816,-0.4642,-0.4225,-0.4152,-0.3826,-0.3726,-0.3536,-0.3427,-0.3782,-0.3833,-0.3192,-0.3184,-0.3178,-0.3172,-0.3168,0,-0.6841,-0.6777,-0.6836,-0.6806,-0.6623,-0.6549,-0.6289,-0.6142,-0.5901,-0.5662,-0.5579,-0.5371,-0.5175,-0.4932,-0.4823,-0.4454,-0.4394,-0.4291,-0.419,-0.3995,-0.3978,-0.4553,-0.4594,-0.4258,-0.4263,-0.4267,-0.4271,0,-0.6841,-0.6891,-0.6871,-0.6847,-0.6728,-0.6627,-0.6483,-0.6262,-0.6126,-0.5856,-0.5712,-0.5482,-0.5331,-0.5112,-0.5022,-0.511,-0.4589,-0.4629,-0.4391,-0.4383,-0.3977,-0.3951,-0.4277,-0.4278,-0.4279,-0.4281,-0.4283,0,-0.6903,-0.6931,-0.6989,-0.6797,-0.6754,-0.6726,-0.6382,-0.6352,-0.6129,-0.6047,-0.5899,-0.582,-0.5629,-0.5757,-0.5374,-0.5559,-0.5394,-0.527,-0.5241,-0.513,-0.5147,-0.427,-0.403,-0.493,-0.4937,-0.4944,-0.4951,0,-0.6781,-0.692,-0.6884,-0.6868,-0.6835,-0.6657,-0.6631,-0.6492,-0.6381,-0.6222,-0.6145,-0.6057,-0.6204,-0.6106,-0.5996,-0.5829,-0.5627,-0.5931,-0.532,-0.53,-0.5145,-0.5034,-0.4742,-0.4166,-0.5041,-0.5031,-0.5025,0,-0.6641,-0.6706,-0.6702,-0.6629,-0.656,-0.6509,-0.6551,-0.6384,-0.6271,-0.6329,-0.6165,-0.6322,-0.6191,-0.6203,-0.6178,-0.6024,-0.5767,-0.6019,-0.6006,-0.565,-0.5213,-0.5164,-0.5097,-0.5731,-0.5723,-0.5716,-0.5096,0,-0.641,-0.6437,-0.6531,-0.6528,-0.6486,-0.6489,-0.6411,-0.637,-0.633,-0.6253,-0.6234,-0.6243,-0.6184,-0.6282,-0.6311,-0.6183,-0.6118,-0.6129,-0.5931,-0.5986,-0.5727,-0.5671,-0.6315,-0.6314,-0.6313,-0.6313,0,0,-0.6137,-0.6195,-0.6156,-0.6238,-0.6192,-0.6055,-0.608,-0.6074,-0.6068,-0.5994,-0.6076,-0.6107,-0.6149,-0.609,-0.6196,-0.6255,-0.6093,-0.6161,-0.6062,-0.6035,-0.601,-0.5759,-0.5707,-0.6311,-0.6311,-0.6311,-0.631,0,-0.6015,-0.5969,-0.611,-0.6078,-0.6063,-0.5976,-0.6,-0.5962,-0.5931,-0.6002,-0.5966,-0.5973,-0.6111,-0.6044,-0.6058,-0.6237,-0.6031,-0.6353,-0.6294,-0.6064,-0.6039,-0.6015,-0.5765,-0.5718,-0.6308,-0.6309,-0.6309,0,-0.5754,-0.5773,-0.5841,-0.5834,-0.5821,-0.5844,-0.5743,-0.5789,-0.5808,-0.5709,-0.5788,-0.5806,-0.5837,-0.5918,-0.5968,-0.5894,-0.5876,-0.6029,-0.6039,-0.5969,-0.572,-0.5699,-0.5679,-0.5885,-0.5883,-0.5881,0,0,-0.5654,-0.5751,-0.5704,-0.5813,-0.5806,-0.5745,-0.5754,-0.57,-0.5708,-0.5692,-0.5683,-0.5721,-0.5783,-0.5781,-0.5845,-0.5895,-0.5714,-0.5969,-0.5989,-0.6005,-0.5945,-0.5704,-0.5688,-0.5873,-0.5872,-0.5872,0,0,-0.5636,-0.5674,-0.5605,-0.5722,-0.569,-0.5664,-0.5717,-0.5656,-0.5637,-0.5649,-0.5592,-0.559,-0.5708,-0.5693,-0.5587,-0.5781,-0.5717,-0.5736,-0.5712,-0.5737,-0.5757,-0.5659,-0.5473,0,0,0,0,0,-0.5566,-0.5677,-0.5615,-0.5633,-0.5649,-0.5678,-0.5668,-0.5622,-0.5603,-0.5593,-0.5595,-0.5532,-0.5649,-0.5551,-0.555,-0.5611,-0.5763,-0.5782,-0.5801,-0.5793,-0.582,-0.5843,0,0,0,0,0,0,-0.5573,-0.5594,-0.5614,-0.5607,-0.5613,-0.5673,-0.5601,-0.5583,-0.5601,-0.5589,-0.5534,-0.5529,-0.5473,-0.5546,-0.5546,-0.5606,-0.5473,-0.5771,-0.5787,-0.5802,-0.5802,-0.5824,-0.5843,0,0,0,0,0,-0.558,-0.5596,-0.5651,-0.5601,-0.5606,-0.5575,-0.5598,-0.5583,-0.556,-0.5536,-0.5525,-0.5542,-0.5474,-0.5474,-0.5546,-0.5607,-0.5472,-0.5472,-0.5781,-0.5794,-0.5806,-0.5813,0,0,0,0,0,0,-0.5584,-0.5509,-0.5648,-0.5646,-0.5604,-0.5567,-0.5561,-0.5583,-0.5501,-0.5496,-0.5541,-0.5534,-0.5475,-0.5475,-0.5475,-0.5613,-0.5471,-0.5472,-0.5472,-0.5791,-0.5801,-0.581,0,0,0,0,0,0,-0.5504,-0.5507,-0.5645,-0.5651,-0.5648,-0.556,-0.5556,-0.5567,-0.5502,-0.5502,-0.5498,-0.554,-0.553,-0.5475,-0.5475,-0.5487,-0.5471,-0.5471,-0.5471,-0.5472,-0.5799,-0.5807,0,0,0,0,0,0,-0.5503,-0.5506,-0.5648,-0.5646,-0.5642,-0.5591,-0.5566,-0.5596,-0.5476,-0.5505,-0.5474,-0.5473,-0.5536,-0.553,-0.5475,-0.5487,-0.5487,-0.5471,-0.5471,-0.5471,-0.5471,0,0,0,0,0,0,0,-0.5503,-0.5509,-0.5701,-0.5642,-0.5638,-0.564,-0.5635,-0.563,-0.5475,-0.5475,-0.5474,-0.5473,-0.5468,-0.5469,-0.5469,-0.5487,0,0,-0.5471,-0.5471,0,0,0,0,0,0,0,0,-0.5505,-0.5508,-0.5701,-0.5703,-0.5705,-0.5639,-0.5635,-0.5631,-0.5475,-0.5475,-0.5474,-0.5473,-0.5468,-0.5469,-0.5469,0,0,0,0,0,0,0,0,0,0,0,0,0,0,0,-0.5701,-0.5703,0,-0.5639,-0.5635,-0.5632,-0.5475,-0.5475,-0.5474,-0.5474,-0.5468,-0.5469,-0.5469,0,0,0,0,0,0,0,0,0,0,0,0,0,0,0,0,0,0,0,0,0,0,0,0,0,0,0,0,0,0,0,0,0,0,0,0,0,0,0,0,0,0,0,0,0,0,0,0,0,0,0,0,0,0,0,0,0,0,0,0,0,0,0,0,0,0,0,0,0]}],[{"header":{"parameterUnit":"kt","parameterCategory":2,"dx":1,"dy":1,"la1":30.253999710083008,"la2":30.299108505249023,"lo1":-89.0895004272461,"lo2":-89.04439544677734,"nx":28,"ny":28,"refTime":"2022-10-08T21:00:00:Z","depth":"2","parameterNumber":3,"parameterNumberName":"V-component_of_CURRENTS"},"data":[-0.1929,-0.182,-0.1739,-0.1412,-0.1244,-0.098,-0.0866,-0.0901,-0.085,-0.0802,-0.0642,-0.0631,-0.0399,-0.014,-0.0009,0.0236,0.046,0.0265,0.0277,0.0493,0.053,0.0748,0.0487,0,0,0,0,0,-0.1966,-0.185,-0.1804,-0.1642,-0.1488,-0.1436,-0.1328,-0.1248,-0.1089,-0.1003,-0.0846,-0.0636,-0.0441,-0.0094,0.0217,0.0303,0.0422,0.0454,0.0633,0.0667,0.0702,0.0521,0.034,0.0343,0.0345,0.0347,0,0,-0.1948,-0.1942,-0.1828,-0.1753,-0.1677,-0.1563,-0.1481,-0.1386,-0.1259,-0.0987,-0.0947,-0.068,-0.0502,-0.0055,0.0202,0.0507,0.0524,0.0714,0.0738,0.0767,0.0577,0.0385,0.0415,0.0416,0.0417,0.0419,0.042,0,-0.1875,-0.1822,-0.1806,-0.1751,-0.1684,-0.1643,-0.1508,-0.148,-0.1195,-0.1082,-0.0831,-0.0675,-0.0327,-0.0016,0.0328,0.0546,0.0956,0.0927,0.123,0.1002,0.0823,0.0799,0.079,0.097,0.0975,0.0978,0.0981,0.0983,-0.1712,-0.1735,-0.169,-0.1663,-0.1599,-0.1553,-0.1459,-0.1264,-0.1128,-0.0828,-0.0727,-0.0408,-0.019,0.0273,0.0571,0.0944,0.1149,0.1041,0.1017,0.1116,0.1094,0.1069,0.1044,0.1033,0.1027,0.1022,0.1017,0,-0.1637,-0.1546,-0.1574,-0.1472,-0.1442,-0.1429,-0.1262,-0.1142,-0.0913,-0.0714,-0.0615,-0.0239,0.008,0.0438,0.0908,0.1016,0.1289,0.1328,0.1101,0.1068,0.1101,0.1067,0.1337,0.1329,0.1323,0.1318,0.1313,0,-0.1461,-0.1485,-0.1363,-0.1394,-0.1366,-0.1227,-0.1115,-0.0939,-0.0687,-0.0541,-0.0224,-0.0089,0.0349,0.0592,0.0853,0.105,0.1246,0.1183,0.1186,0.1079,0.1036,0.1314,0.1282,0.1573,0.1571,0.1569,0.1567,0,-0.1373,-0.1305,-0.1289,-0.1285,-0.118,-0.1087,-0.1007,-0.0756,-0.0648,-0.0317,-0.024,0.0142,0.0269,0.0589,0.0808,0.08,0.1185,0.1207,0.113,0.1108,0.1095,0.1055,0.1565,0.1564,0.1564,0.1563,0.1562,0,-0.1211,-0.1207,-0.117,-0.1124,-0.1106,-0.1052,-0.0904,-0.0788,-0.0492,-0.0379,-0.0136,-0.0,0.0305,0.0283,0.0705,0.0575,0.0757,0.087,0.0883,0.0641,0.0537,0.0627,0.0774,0.095,0.0945,0.094,0.0936,0,-0.1187,-0.1148,-0.1075,-0.1073,-0.1091,-0.0987,-0.0869,-0.0733,-0.0614,-0.0458,-0.0238,-0.0076,-0.0021,0.0062,0.0256,0.0426,0.0618,0.0429,0.0752,0.0761,0.0465,0.0615,0.0501,0.0708,0.0873,0.088,0.0884,0,-0.1198,-0.1107,-0.1117,-0.1126,-0.1059,-0.1047,-0.0904,-0.0772,-0.0666,-0.0571,-0.0403,-0.0175,-0.0106,0.001,0.0117,0.028,0.0506,0.0286,0.0295,0.0365,0.0861,0.0562,0.0576,0.055,0.0558,0.0564,0.0835,0,-0.1142,-0.1148,-0.112,-0.1092,-0.1062,-0.1031,-0.0945,-0.0887,-0.0841,-0.0752,-0.0551,-0.0436,-0.0245,-0.019,-0.0126,0.0141,0.0124,0.0128,0.0123,0.0246,0.0339,0.0379,-0.0089,-0.0089,-0.009,-0.009,0,0,-0.1194,-0.1181,-0.1166,-0.1129,-0.1105,-0.1064,-0.1029,-0.0956,-0.0863,-0.0773,-0.0816,-0.0538,-0.0448,-0.0184,-0.0135,-0.0117,-0.0039,-0.0094,0.0162,0.0189,0.0215,0.0311,0.0349,-0.0091,-0.0091,-0.0091,-0.0091,0,-0.1177,-0.1208,-0.119,-0.1166,-0.1097,-0.1059,-0.1047,-0.0969,-0.0911,-0.0839,-0.0745,-0.0621,-0.0505,-0.035,-0.0256,-0.0143,-0.0074,-0.0116,-0.003,0.0151,0.0179,0.0204,0.0303,0.0337,-0.0092,-0.0092,-0.0092,0,-0.1212,-0.118,-0.1188,-0.1148,-0.1094,-0.1055,-0.1016,-0.0954,-0.0894,-0.0844,-0.0759,-0.0684,-0.0543,-0.0417,-0.0358,-0.0362,-0.0098,-0.0213,-0.0209,-0.0172,0.0016,0.0047,0.0074,-0.0276,-0.0277,-0.0278,0,0,-0.1201,-0.1208,-0.115,-0.1136,-0.1113,-0.1038,-0.1002,-0.0965,-0.0884,-0.0859,-0.0797,-0.0694,-0.0572,-0.051,-0.0429,-0.0322,-0.0241,-0.0239,-0.0231,-0.0224,-0.0184,0.0004,0.0034,-0.0281,-0.0281,-0.0282,0,0,-0.1168,-0.1126,-0.1133,-0.1124,-0.1072,-0.0969,-0.0941,-0.091,-0.085,-0.0836,-0.0755,-0.0731,-0.0622,-0.057,-0.0629,-0.0399,-0.0429,-0.0417,-0.0438,-0.0427,-0.0418,-0.0393,-0.0589,0,0,0,0,0,-0.1127,-0.1135,-0.1143,-0.1132,-0.1059,-0.0982,-0.0968,-0.0908,-0.0884,-0.0883,-0.0805,-0.0772,-0.0567,-0.0619,-0.0598,-0.0512,-0.0329,-0.032,-0.0313,-0.0316,-0.0304,-0.0294,0,0,0,0,0,0,-0.1122,-0.1112,-0.1139,-0.1044,-0.1024,-0.0982,-0.0943,-0.0928,-0.0884,-0.0879,-0.0787,-0.0769,-0.0716,-0.0626,-0.0608,-0.0526,-0.0595,-0.0326,-0.0318,-0.0312,-0.0312,-0.0302,-0.0294,0,0,0,0,0,-0.1117,-0.1109,-0.1023,-0.1042,-0.1025,-0.0938,-0.0944,-0.0931,-0.0906,-0.0804,-0.0787,-0.0859,-0.0718,-0.0697,-0.0615,-0.0534,-0.0607,-0.0601,-0.0321,-0.0315,-0.031,-0.0307,0,0,0,0,0,0,-0.1113,-0.1102,-0.1017,-0.1006,-0.1039,-0.0939,-0.0928,-0.0934,-0.0833,-0.0815,-0.0872,-0.0869,-0.0719,-0.0703,-0.0687,-0.0538,-0.0617,-0.061,-0.0606,-0.0317,-0.0312,-0.0308,0,0,0,0,0,0,-0.1105,-0.1096,-0.1012,-0.1013,-0.1003,-0.0941,-0.0931,-0.0865,-0.0832,-0.0909,-0.0902,-0.0872,-0.0723,-0.0707,-0.0694,-0.0594,-0.0624,-0.0618,-0.0614,-0.0611,-0.0313,-0.031,0,0,0,0,0,0,-0.1099,-0.1091,-0.1016,-0.1008,-0.1,-0.0891,-0.0879,-0.0805,-0.085,-0.0915,-0.0848,-0.0848,-0.0726,-0.0714,-0.0699,-0.0605,-0.0597,-0.0624,-0.062,-0.0617,-0.0615,0,0,0,0,0,0,0,-0.1094,-0.1175,-0.1064,-0.1004,-0.0997,-0.0912,-0.091,-0.0909,-0.085,-0.0849,-0.0848,-0.0848,-0.066,-0.0653,-0.0646,-0.0614,0,0,-0.0625,-0.0622,0,0,0,0,0,0,0,0,-0.1175,-0.1175,-0.1063,-0.1061,-0.1058,-0.0912,-0.091,-0.0909,-0.0849,-0.0849,-0.0849,-0.0848,-0.0659,-0.0653,-0.0647,0,0,0,0,0,0,0,0,0,0,0,0,0,0,0,-0.1063,-0.1061,0,-0.0911,-0.091,-0.0909,-0.0849,-0.0849,-0.0849,-0.0848,-0.0657,-0.0652,-0.0648,0,0,0,0,0,0,0,0,0,0,0,0,0,0,0,0,0,0,0,0,0,0,0,0,0,0,0,0,0,0,0,0,0,0,0,0,0,0,0,0,0,0,0,0,0,0,0,0,0,0,0,0,0,0,0,0,0,0,0,0,0,0,0,0,0,0,0,0,0]}]],[[{"header":{"parameterUnit":"kt","parameterCategory":2,"dx":1,"dy":1,"la1":30.253999710083008,"la2":30.299108505249023,"lo1":-89.0895004272461,"lo2":-89.04439544677734,"nx":28,"ny":28,"refTime":"2022-10-08T21:00:00:Z","depth":"4","parameterNumber":2,"parameterNumberName":"U-component_of_CURRENTS"},"data":[-0.0349,-0.0397,-0.0406,-0.0263,-0.0176,-0.0099,-0.0073,-0.0086,-0.0098,-0.0148,-0.0262,-0.032,-0.0525,-0.0447,-0.069,-0.0731,-0.1335,-0.1032,-0.1031,-0.2157,-0.2221,-0.2278,-0.2434,0,0,0,0,0,-0.0394,-0.0432,-0.0403,-0.0312,-0.0265,-0.022,-0.0203,-0.0278,-0.032,-0.0225,-0.0459,-0.0358,-0.0511,-0.0625,-0.0711,-0.0824,-0.1522,-0.0923,-0.1877,-0.2197,-0.2268,-0.2396,0,0,0,0,0,0,-0.044,-0.0433,-0.0501,-0.0426,-0.037,-0.0283,-0.0331,-0.0384,-0.0505,-0.0682,-0.0512,-0.0642,-0.088,-0.1068,-0.0926,-0.1056,-0.1489,-0.1754,-0.1844,-0.1915,-0.1933,-0.1492,-0.0776,0,0,0,0,0,-0.0462,-0.0503,-0.0591,-0.0483,-0.0527,-0.0499,-0.0641,-0.0646,-0.0948,-0.1082,-0.102,-0.1177,-0.11,-0.1518,-0.1398,-0.1565,-0.2421,-0.2099,-0.2159,-0.3009,-0.274,-0.2741,-0.2786,-0.2538,-0.2547,-0.2552,-0.2556,0,-0.0419,-0.0493,-0.0569,-0.0551,-0.0726,-0.0854,-0.0931,-0.1309,-0.1359,-0.149,-0.1503,-0.169,-0.1912,-0.1729,-0.2179,-0.2303,-0.2391,-0.2271,-0.3173,-0.2856,-0.2834,-0.2863,-0.2887,-0.2613,-0.2608,-0.2604,-0.2599,0,-0.0423,-0.0519,-0.0636,-0.0885,-0.0919,-0.103,-0.1357,-0.1427,-0.175,-0.1817,-0.2033,-0.2492,-0.2593,-0.2858,-0.3133,-0.3257,-0.3207,-0.3012,-0.3242,-0.3221,-0.2989,-0.2991,-0.2707,-0.2686,-0.2668,-0.2654,-0.2641,0,-0.048,-0.0563,-0.0736,-0.0875,-0.0934,-0.133,-0.1457,-0.1741,-0.2084,-0.2075,-0.2654,-0.2719,-0.3562,-0.3553,-0.3765,-0.3622,-0.3888,-0.3772,-0.3717,-0.4394,-0.4388,-0.4298,-0.4281,-0.4493,-0.4497,-0.45,-0.4503,0,-0.0579,-0.0733,-0.083,-0.0953,-0.1347,-0.1526,-0.1778,-0.2037,-0.2181,-0.2587,-0.2675,-0.3187,-0.3531,-0.3831,-0.3963,-0.422,-0.3983,-0.4395,-0.3868,-0.3816,-0.4313,-0.4289,-0.4508,-0.4508,-0.4509,-0.4511,-0.4512,0,-0.0819,-0.0861,-0.097,-0.1315,-0.1401,-0.1583,-0.1924,-0.2123,-0.2436,-0.2622,-0.2993,-0.3268,-0.3691,-0.3941,-0.424,-0.4271,-0.4333,-0.435,-0.434,-0.3764,-0.3688,-0.3868,-0.4034,-0.4034,-0.4034,-0.4034,-0.4034,0,-0.1043,-0.1047,-0.124,-0.1416,-0.1546,-0.1956,-0.212,-0.2375,-0.2597,-0.2809,-0.3198,-0.3422,-0.3698,-0.3916,-0.414,-0.4258,-0.4302,-0.4354,-0.4208,-0.4192,-0.3735,-0.3788,-0.4529,-0.4034,-0.4034,-0.4034,-0.4034,0,-0.121,-0.1452,-0.1451,-0.1604,-0.1944,-0.2038,-0.2287,-0.2529,-0.2595,-0.3,-0.3132,-0.3492,-0.3717,-0.3775,-0.3956,-0.409,-0.4262,-0.4117,-0.4121,-0.39,-0.4353,-0.3837,-0.3783,-0.4499,-0.4505,-0.451,-0.4034,0,-0.1557,-0.1663,-0.1643,-0.1823,-0.1968,-0.2073,-0.2368,-0.2589,-0.2836,-0.295,-0.3211,-0.3479,-0.3675,-0.375,-0.38,-0.4018,-0.3838,-0.3974,-0.3878,-0.4047,-0.3785,-0.3786,-0.3701,-0.3696,-0.3692,-0.3689,0,0,-0.179,-0.1782,-0.1933,-0.1966,-0.2077,-0.2378,-0.2448,-0.2617,-0.2854,-0.2916,-0.3055,-0.3346,-0.3458,-0.3589,-0.3705,-0.3729,-0.3659,-0.3635,-0.3938,-0.3966,-0.3992,-0.3758,-0.3764,-0.3682,-0.368,-0.3679,-0.3678,0,-0.1837,-0.1986,-0.1935,-0.2069,-0.2243,-0.2394,-0.2442,-0.266,-0.2791,-0.2981,-0.3075,-0.3273,-0.3365,-0.3468,-0.3502,-0.3665,-0.3551,-0.3668,-0.3723,-0.3901,-0.3934,-0.3963,-0.3741,-0.3749,-0.3668,-0.3669,-0.3669,0,-0.2038,-0.2084,-0.2085,-0.2226,-0.2332,-0.2442,-0.2536,-0.2638,-0.2745,-0.2814,-0.2996,-0.3113,-0.314,-0.3282,-0.3335,-0.327,-0.3415,-0.3397,-0.3415,-0.3339,-0.3513,-0.3551,-0.3585,-0.3157,-0.3156,-0.3155,0,0,-0.21,-0.2086,-0.2262,-0.2252,-0.2333,-0.2491,-0.255,-0.2665,-0.2767,-0.2837,-0.2938,-0.3018,-0.3098,-0.314,-0.3197,-0.3278,-0.3199,-0.3343,-0.3367,-0.3388,-0.3326,-0.3501,-0.3537,-0.3152,-0.3152,-0.3152,0,0,-0.2099,-0.2201,-0.2315,-0.232,-0.2449,-0.2552,-0.2581,-0.2692,-0.2828,-0.2869,-0.2918,-0.2937,-0.3079,-0.3038,-0.2998,-0.3181,-0.3068,-0.3077,-0.3246,-0.3275,-0.3298,-0.3221,-0.296,0,0,0,0,0,-0.2214,-0.2179,-0.2282,-0.2301,-0.2442,-0.2518,-0.2545,-0.2666,-0.2734,-0.279,-0.2898,-0.2872,-0.3043,-0.3009,-0.3014,-0.3122,-0.3111,-0.3118,-0.3125,-0.3361,-0.3392,-0.3418,0,0,0,0,0,0,-0.2221,-0.2241,-0.2281,-0.2371,-0.2404,-0.2518,-0.2584,-0.262,-0.2731,-0.2752,-0.286,-0.2872,-0.2893,-0.3003,-0.3009,-0.3114,-0.2958,-0.3114,-0.312,-0.3126,-0.3372,-0.3397,-0.3419,0,0,0,0,0,-0.2227,-0.2243,-0.2435,-0.2375,-0.2403,-0.2554,-0.2587,-0.2617,-0.2741,-0.2772,-0.2795,-0.2832,-0.289,-0.29,-0.3006,-0.3113,-0.2954,-0.2957,-0.3118,-0.3123,-0.3127,-0.3384,0,0,0,0,0,0,-0.2232,-0.23,-0.2445,-0.2459,-0.2385,-0.2555,-0.2584,-0.2614,-0.2758,-0.2781,-0.2735,-0.2746,-0.2888,-0.2896,-0.2903,-0.3117,-0.2951,-0.2953,-0.2955,-0.3122,-0.3125,-0.3129,0,0,0,0,0,0,-0.2291,-0.2311,-0.2453,-0.246,-0.2477,-0.2554,-0.258,-0.2593,-0.2755,-0.2716,-0.2729,-0.2737,-0.2834,-0.2893,-0.2899,-0.2919,-0.2949,-0.2951,-0.2952,-0.2953,-0.3125,-0.3128,0,0,0,0,0,0,-0.2302,-0.232,-0.2458,-0.2471,-0.2486,-0.2665,-0.2566,-0.269,-0.2816,-0.2706,-0.2822,-0.2825,-0.2825,-0.2837,-0.2895,-0.2912,-0.2917,-0.2949,-0.295,-0.2951,-0.2952,0,0,0,0,0,0,0,-0.2311,-0.2158,-0.2345,-0.248,-0.2494,-0.2586,-0.2592,-0.2597,-0.2816,-0.2819,-0.2821,-0.2823,-0.2937,-0.2939,-0.2941,-0.2906,0,0,-0.2949,-0.295,0,0,0,0,0,0,0,0,-0.2154,-0.2157,-0.2346,-0.2348,-0.235,-0.2587,-0.2591,-0.2596,-0.2817,-0.2819,-0.2821,-0.2822,-0.2938,-0.2939,-0.2941,0,0,0,0,0,0,0,0,0,0,0,0,0,0,0,-0.2346,-0.2348,0,-0.2588,-0.2591,-0.2595,-0.2817,-0.2819,-0.282,-0.2822,-0.2938,-0.294,-0.2941,0,0,0,0,0,0,0,0,0,0,0,0,0,0,0,0,0,0,0,0,0,0,0,0,0,0,0,0,0,0,0,0,0,0,0,0,0,0,0,0,0,0,0,0,0,0,0,0,0,0,0,0,0,0,0,0,0,0,0,0,0,0,0,0,0,0,0,0,0]}],[{"header":{"parameterUnit":"kt","parameterCategory":2,"dx":1,"dy":1,"la1":30.253999710083008,"la2":30.299108505249023,"lo1":-89.0895004272461,"lo2":-89.04439544677734,"nx":28,"ny":28,"refTime":"2022-10-08T21:00:00:Z","depth":"4","parameterNumber":3,"parameterNumberName":"V-component_of_CURRENTS"},"data":[-0.1161,-0.1172,-0.1158,-0.1142,-0.1169,-0.12,-0.1181,-0.1154,-0.112,-0.1099,-0.1146,-0.1112,-0.1162,-0.1179,-0.1124,-0.1113,-0.1368,-0.1074,-0.1069,-0.1598,-0.1639,-0.1675,-0.1572,0,0,0,0,0,-0.1249,-0.123,-0.122,-0.1251,-0.1293,-0.1358,-0.1312,-0.1354,-0.1317,-0.1162,-0.1328,-0.1142,-0.1096,-0.1138,-0.1102,-0.1112,-0.1393,-0.1053,-0.15,-0.1624,-0.1668,-0.1553,0,0,0,0,0,0,-0.1342,-0.1309,-0.1412,-0.1439,-0.1477,-0.1453,-0.1488,-0.1473,-0.1512,-0.1531,-0.135,-0.1368,-0.1475,-0.1474,-0.1301,-0.1313,-0.1415,-0.1489,-0.1538,-0.1581,-0.1462,-0.1366,-0.0963,0,0,0,0,0,-0.1434,-0.154,-0.1589,-0.1617,-0.1721,-0.1716,-0.1796,-0.1763,-0.1871,-0.1979,-0.181,-0.1818,-0.1622,-0.1742,-0.1659,-0.1574,-0.2015,-0.1776,-0.1806,-0.2007,-0.1973,-0.1841,-0.1855,-0.1838,-0.1843,-0.1847,-0.1849,0,-0.1493,-0.1583,-0.1736,-0.1768,-0.1939,-0.2057,-0.2098,-0.2338,-0.2327,-0.2306,-0.2235,-0.2245,-0.2288,-0.1972,-0.204,-0.1999,-0.1906,-0.1888,-0.21,-0.2046,-0.1901,-0.1904,-0.1905,-0.1885,-0.1882,-0.1879,-0.1876,0,-0.1506,-0.1673,-0.1789,-0.2025,-0.209,-0.2173,-0.2371,-0.242,-0.2639,-0.26,-0.2708,-0.2906,-0.2759,-0.2829,-0.268,-0.2602,-0.2377,-0.2183,-0.2522,-0.2375,-0.1977,-0.1963,-0.1944,-0.1931,-0.192,-0.191,-0.1903,0,-0.1587,-0.1677,-0.19,-0.1974,-0.2094,-0.2293,-0.2451,-0.26,-0.2814,-0.2764,-0.3126,-0.3054,-0.3305,-0.3163,-0.3055,-0.2693,-0.2868,-0.2458,-0.2306,-0.2653,-0.2637,-0.2585,-0.256,-0.2808,-0.2808,-0.2809,-0.2809,0,-0.1552,-0.1737,-0.1904,-0.1952,-0.2122,-0.2336,-0.2426,-0.26,-0.2664,-0.2978,-0.2984,-0.3291,-0.3282,-0.3288,-0.298,-0.3026,-0.2778,-0.2778,-0.2348,-0.2317,-0.2577,-0.2551,-0.2809,-0.2809,-0.2809,-0.2809,-0.2809,0,-0.1631,-0.169,-0.1877,-0.2026,-0.2048,-0.2193,-0.2353,-0.2462,-0.2683,-0.2766,-0.3014,-0.3023,-0.3206,-0.3037,-0.3022,-0.2985,-0.2827,-0.265,-0.2641,-0.2258,-0.1967,-0.2178,-0.2409,-0.2407,-0.2404,-0.2402,-0.24,0,-0.1558,-0.1684,-0.1799,-0.1925,-0.1931,-0.2005,-0.2146,-0.226,-0.232,-0.2463,-0.2599,-0.2698,-0.2663,-0.2681,-0.2726,-0.2512,-0.2561,-0.2517,-0.2315,-0.2312,-0.195,-0.2081,-0.2401,-0.237,-0.2374,-0.2377,-0.2379,0,-0.1453,-0.1603,-0.1609,-0.1659,-0.17,-0.1695,-0.1882,-0.1992,-0.2074,-0.2178,-0.2379,-0.2471,-0.2465,-0.2508,-0.2444,-0.2439,-0.2497,-0.2269,-0.2263,-0.2243,-0.2464,-0.2085,-0.2066,-0.2375,-0.2381,-0.2385,-0.2357,0,-0.1392,-0.1482,-0.1518,-0.1565,-0.1589,-0.1614,-0.1602,-0.167,-0.1688,-0.1727,-0.1914,-0.1871,-0.2003,-0.1984,-0.1925,-0.2114,-0.2024,-0.1906,-0.1833,-0.1999,-0.1954,-0.1972,-0.1708,-0.1704,-0.17,-0.1698,0,0,-0.1241,-0.1342,-0.1301,-0.1356,-0.1379,-0.1258,-0.1324,-0.1347,-0.1352,-0.1446,-0.1368,-0.1537,-0.1499,-0.1704,-0.1757,-0.1698,-0.166,-0.1774,-0.1908,-0.1932,-0.1953,-0.1922,-0.1942,-0.1692,-0.1691,-0.169,-0.1689,0,-0.1184,-0.1196,-0.1283,-0.1267,-0.1243,-0.1208,-0.1215,-0.1179,-0.1221,-0.1296,-0.1256,-0.1312,-0.1374,-0.1429,-0.1462,-0.1633,-0.1566,-0.1644,-0.1892,-0.1878,-0.1906,-0.193,-0.1905,-0.1926,-0.1681,-0.1681,-0.1682,0,-0.1049,-0.1071,-0.1113,-0.1122,-0.1094,-0.1111,-0.103,-0.1042,-0.1118,-0.1009,-0.113,-0.1105,-0.1121,-0.1231,-0.1277,-0.1241,-0.1465,-0.1402,-0.1419,-0.1516,-0.1498,-0.1531,-0.156,-0.1183,-0.1182,-0.1181,0,0,-0.0997,-0.1079,-0.102,-0.1096,-0.107,-0.1028,-0.1033,-0.1012,-0.0999,-0.1005,-0.1013,-0.104,-0.1086,-0.1123,-0.1141,-0.1244,-0.1215,-0.1346,-0.137,-0.1389,-0.1495,-0.1484,-0.1515,-0.1176,-0.1176,-0.1176,0,0,-0.0957,-0.0961,-0.0942,-0.1023,-0.0992,-0.0948,-0.098,-0.0958,-0.0972,-0.098,-0.0951,-0.0952,-0.1038,-0.1025,-0.0963,-0.1174,-0.1071,-0.1083,-0.1204,-0.1233,-0.1256,-0.1378,-0.0925,0,0,0,0,0,-0.0875,-0.0958,-0.0941,-0.0948,-0.0967,-0.0953,-0.0954,-0.0936,-0.0927,-0.0949,-0.0942,-0.0927,-0.1,-0.0942,-0.0947,-0.1084,-0.1117,-0.1127,-0.1137,-0.1314,-0.1344,-0.137,0,0,0,0,0,0,-0.0877,-0.0885,-0.0938,-0.0901,-0.0904,-0.0952,-0.0911,-0.0908,-0.0924,-0.0921,-0.0927,-0.0926,-0.0905,-0.0939,-0.0944,-0.1076,-0.0924,-0.1121,-0.113,-0.1138,-0.1324,-0.1349,-0.1371,0,0,0,0,0,-0.0878,-0.0884,-0.093,-0.0899,-0.0902,-0.0884,-0.0911,-0.0907,-0.0928,-0.0905,-0.0904,-0.0916,-0.0906,-0.091,-0.0942,-0.1076,-0.092,-0.0922,-0.1127,-0.1134,-0.114,-0.1337,0,0,0,0,0,0,-0.0879,-0.0881,-0.0929,-0.0928,-0.0888,-0.0881,-0.0883,-0.0907,-0.0911,-0.091,-0.089,-0.0888,-0.0907,-0.0909,-0.0912,-0.1081,-0.0918,-0.0919,-0.0921,-0.1132,-0.1138,-0.1142,0,0,0,0,0,0,-0.0876,-0.0881,-0.0929,-0.0916,-0.0914,-0.0879,-0.088,-0.0903,-0.0913,-0.0898,-0.0895,-0.0889,-0.0906,-0.0909,-0.0912,-0.0947,-0.0916,-0.0917,-0.0919,-0.0919,-0.1136,-0.1141,0,0,0,0,0,0,-0.0877,-0.0881,-0.0917,-0.0915,-0.0912,-0.0899,-0.0899,-0.0926,-0.0887,-0.0899,-0.0884,-0.0883,-0.0907,-0.0909,-0.0911,-0.0946,-0.0947,-0.0916,-0.0917,-0.0918,-0.0918,0,0,0,0,0,0,0,-0.0878,-0.0866,-0.0933,-0.0913,-0.0911,-0.0915,-0.0915,-0.0915,-0.0887,-0.0886,-0.0885,-0.0883,-0.0906,-0.0907,-0.0909,-0.0945,0,0,-0.0915,-0.0916,0,0,0,0,0,0,0,0,-0.0864,-0.0866,-0.0933,-0.0932,-0.0932,-0.0915,-0.0915,-0.0915,-0.0887,-0.0886,-0.0885,-0.0884,-0.0906,-0.0908,-0.0909,0,0,0,0,0,0,0,0,0,0,0,0,0,0,0,-0.0933,-0.0932,0,-0.0915,-0.0915,-0.0915,-0.0887,-0.0886,-0.0885,-0.0884,-0.0906,-0.0908,-0.0909,0,0,0,0,0,0,0,0,0,0,0,0,0,0,0,0,0,0,0,0,0,0,0,0,0,0,0,0,0,0,0,0,0,0,0,0,0,0,0,0,0,0,0,0,0,0,0,0,0,0,0,0,0,0,0,0,0,0,0,0,0,0,0,0,0,0,0,0,0]}]]]